Location: Claremont
(35.7250°N, 81.1500°W)
Time: 04:57:42
(UTC-05:00)

Daily predictions for brighter satellites

Satellite Brightness Start Highest point End
(mag) Time Altitude Azimuth Time Altitude Azimuth Time Altitude Azimuth
Cosmos 2369 Rocket 3.8 04:31:57 26° NE 04:33:22 29° ENE 04:38:16 10° ESE
Cosmos 1943 3.2 04:57:04 79° ESE 04:57:04 79° ESE 05:02:42 10° NNE
Cosmos 1943 Rocket 4.2 04:56:05 11° N 05:00:04 22° ENE 05:04:17 10° ESE
CZ-3 R/B 3.2 04:58:02 15° WSW 05:11:36 42° S 05:16:56 10° ESE
USA 229 DEB 3.7 05:09:26 10° SSW 05:16:18 84° ESE 05:23:16 10° NNE
USA 229 3.7 05:09:33 10° SSW 05:16:24 83° ESE 05:23:21 10° NNE
Cosmos 2154 Rocket 3.9 05:12:28 10° S 05:18:41 90° WNW 05:24:54 10° N
Tiangong 2 3.2 05:20:00 25° ENE 05:20:00 25° ENE 05:21:39 10° E
COSMO-SKYMED 1 3.4 05:21:03 10° SSE 05:25:13 48° ENE 05:28:34 15° N
Cosmos 1536 2.7 05:23:53 10° S 05:27:52 87° ESE 05:31:54 10° N
Lacrosse 5 3.7 05:31:36 18° N 05:31:36 18° N 05:33:36 10° NNE
NOAA 6 3.9 05:28:20 10° N 05:33:29 80° WNW 05:38:36 10° SSW
ASTRO E2 3.4 05:35:21 41° SSW 05:35:59 44° S 05:39:50 10° ESE
Feng Yun 1-1 Rocket 4.5 05:33:21 10° N 05:38:31 42° WNW 05:43:35 10° SW
Cosmos 2084 3.2 05:39:21 61° NNW 05:39:21 61° NNW 05:42:48 10° NNE
Cosmos 44 4.3 05:41:01 32° NNW 05:41:01 32° NNW 05:44:46 10° N
SL-8 Rocket 4.5 05:35:53 10° S 05:42:01 62° E 05:48:08 10° NNE
Cosmos 1269 Rocket 4.1 05:39:28 10° S 05:44:44 78° ESE 05:50:03 10° NNE
SJ-6F 4.5 05:41:37 10° N 05:45:34 51° WNW 05:49:31 10° SSW
CZ-4 R/B 4.0 05:44:53 10° NE 05:47:52 21° E 05:50:50 10° SE
USA 215 3.2 05:41:31 10° NE 05:48:04 86° NW 05:54:36 10° SW
Cosmos 2263 4.1 05:46:13 18° NNW 05:50:27 87° WSW 05:56:02 10° SSE
Cosmos 1340 3.6 05:47:34 10° N 05:51:16 49° E 05:54:56 10° SSE
Cosmos 468 4.4 05:46:43 10° SSW 05:51:55 64° WNW 05:57:11 10° N
Okean 1-7 Rocket 3.7 05:52:12 34° NW 05:53:40 47° W 05:57:52 10° SSW
Cosmos 1420 Rocket 4.3 05:48:49 10° NNW 05:54:02 68° ENE 05:59:11 10° SSE
CSL-04 Rocket 4.1 05:48:41 10° NNE 05:54:12 67° ESE 05:59:36 10° S
SKYMED 3 4.4 05:50:53 10° S 05:55:12 74° WSW 05:58:57 14° NNW
Cosmos 1295 Rocket 4.4 05:53:32 10° SSW 05:59:49 74° W 06:06:04 10° N
Ariane Rocket 2.9 05:58:27 10° N 06:03:30 79° WNW 06:08:32 10° SSW
Cosmos 1455 Rocket 3.4 06:00:38 10° S 06:04:53 65° E 06:09:12 10° NNE
Cosmos 1048 Rocket 3.8 05:59:50 10° SSW 06:04:56 74° WNW 06:10:08 10° NNE
CSL-04 Debris 4.5 05:59:30 10° NNE 06:04:58 72° ESE 06:10:27 10° S
Cosmos 2218 Rocket 4.1 06:02:24 10° S 06:08:48 85° E 06:15:13 10° N
Nadezhda 3 Rocket 4.4 06:06:50 10° NNW 06:12:40 39° W 06:18:29 10° SSW
SKYMED 2 3.9 06:09:07 10° S 06:13:14 44° W 06:17:10 11° NNW
Cosmos 1975 3.7 06:11:54 10° S 06:15:53 55° E 06:19:54 10° NNE
Cosmos 2369 Rocket 2.9 06:13:48 18° NW 06:17:22 34° WSW 06:22:25 10° SSW
COSMOS 2406 3.3 06:16:28 10° SSW 06:22:07 84° ESE 06:27:49 10° NNE
Centaur AC-112 4.2 06:21:34 10° SW 06:23:10 13° S 06:24:24 10° SSE
Lacrosse 4 Rocket 1.4 06:19:46 10° NNW 06:23:53 78° ENE 06:27:56 10° SSE
Cosmos 1025 Rocket 3.7 06:20:51 11° NNW 06:24:38 32° W 06:28:28 10° SSW
GRACE-2 4.0 06:23:12 10° N 06:25:54 47° W 06:28:35 10° SSW
GRACE-1 4.1 06:23:37 10° NNW 06:26:19 45° W 06:28:59 10° SSW
Meteor 2-4 Rocket 4.2 06:21:50 10° NNW 06:26:57 37° W 06:32:10 10° SSW
Meteor 1-5 Rocket 4.5 06:27:03 10° SW 06:32:01 39° WNW 06:36:58 10° N
NOSS 3-1 (C) 3.3 06:28:10 10° SW 06:33:54 71° WNW 06:40:16 10° NNE
Cosmos 1727 Rocket 4.1 06:27:53 10° N 06:34:06 84° E 06:40:21 10° S
SL-27 R/B 2.4 06:33:59 10° SSW 06:37:29 62° WNW 06:41:05 10° N
Atlas Centaur 2 4.0 06:32:33 10° SW 06:40:20 43° SSE 06:47:08 10° E
Cosmos 1943 Rocket 2.5 06:38:47 10° NW 06:44:00 45° WSW 06:49:12 10° S
YAOGAN 1 2.9 06:39:41 10° NNE 06:44:01 73° E 06:48:20 10° S
Cosmos 1515 3.6 06:44:41 10° N 06:48:31 76° W 06:52:18 10° S
Helios 1B rocket 2.8 06:44:34 10° SSE 06:48:40 68° ENE 06:52:48 10° N
Cosmos 1602 Rocket 3.7 06:48:54 10° N 06:53:23 87° E 06:57:48 10° S
Tiangong 2 2.2 06:52:20 10° W 06:55:13 33° SW 06:58:04 10° SSE
Cosmos 1484 Rocket 4.2 06:51:43 10° NNE 06:55:23 43° E 06:59:06 10° S
IDEFIX/ARIANE 42P 2.6 06:52:53 10° N 06:58:05 77° WNW 07:03:17 10° SSW
USA 129 3.3 06:56:48 10° SSW 06:58:28 19° W 07:00:09 10° NW
Cosmos 1656 Rocket 3.7 06:54:45 10° NNW 07:00:27 77° WSW 07:06:06 10° SSE
Cosmos 839 Rocket 4.2 06:54:57 10° NW 07:01:05 53° WSW 07:07:04 10° S
